TimeMST,TemperatureF,Dew PointF,Humidity,Sea Level PressureIn,VisibilityMPH,Wind Direction,Wind SpeedMPH,Gust SpeedMPH,PrecipitationIn,Events,Conditions,WindDirDegrees,DateUTC
5:00 AM,29,26,86,29.43,15,Calm,Calm,,,,Clear,,2012-11-18 12:00:00
5:00 AM,30.2,26.6,86,29.43,15.0,Variable,2.3,-,N/A,,Mostly Cloudy,0,2012-11-18 12:00:00
6:00 AM,28.4,26.6,93,29.46,15.0,South,5.8,-,N/A,,Mostly Cloudy,170,2012-11-18 13:00:00
6:37 AM,26.6,23.0,86,29.49,15.0,NW,11.5,-,N/A,,Mostly Cloudy,320,2012-11-18 13:37:00
6:38 AM,26.6,23.0,86,29.49,15.0,NW,11.5,-,N/A,,Scattered Clouds,320,2012-11-18 13:38:00
7:00 AM,26.6,23.0,86,29.46,15.0,WNW,11.5,-,N/A,,Scattered Clouds,290,2012-11-18 14:00:00
7:53 AM,39.2,26.6,61,29.49,20.0,West,31.1,40.3,N/A,,Mostly Cloudy,270,2012-11-18 14:53:00
8:00 AM,39.2,26.6,61,29.50,30.0,West,29.9,38.0,N/A,,Mostly Cloudy,270,2012-11-18 15:00:00
9:00 AM,39.2,23.0,52,29.55,30.0,West,23.0,32.2,N/A,,Mostly Cloudy,270,2012-11-18 16:00:00
10:00 AM,37.4,19.4,48,29.62,30.0,West,18.4,29.9,N/A,,Mostly Cloudy,270,2012-11-18 17:00:00
11:00 AM,40,18,28,29.66,28,West,23.0,,,,Scattered Clouds,270,2012-11-18 18:00:00
11:00 AM,39.2,17.6,42,29.66,30.0,West,23.0,31.1,N/A,,Mostly Cloudy,270,2012-11-18 18:00:00
12:00 PM,39.2,19.4,45,29.69,30.0,West,9.2,19.6,N/A,,Mostly Cloudy,280,2012-11-18 19:00:00
1:00 PM,37.4,21.2,52,29.70,30.0,WSW,12.7,-,N/A,,Mostly Cloudy,250,2012-11-18 20:00:00
1:27 PM,39.2,21.2,49,29.73,30.0,SW,12.7,-,N/A,,Mostly Cloudy,230,2012-11-18 20:27:00
2:00 PM,41.0,19.4,42,29.74,20.0,SW,10.4,-,N/A,,Mostly Cloudy,220,2012-11-18 21:00:00
3:00 PM,39.2,19.4,45,29.78,20.0,West,11.5,17.3,N/A,,Mostly Cloudy,260,2012-11-18 22:00:00
4:00 PM,35.6,21.2,56,29.81,20.0,WSW,6.9,-,N/A,,Scattered Clouds,250,2012-11-18 23:00:00
5:00 PM,32,18,42,29.84,19,SW,11.5,,,,Scattered Clouds,230,2012-11-19 00:00:00
5:00 PM,32.0,17.6,55,29.84,20.0,SW,10.4,-,N/A,,Scattered Clouds,230,2012-11-19 00:00:00
6:00 PM,24.8,15.8,69,29.87,15.0,SSW,9.2,-,N/A,,Partly Cloudy,210,2012-11-19 01:00:00
7:00 PM,26.6,15.8,64,29.88,15.0,SSE,9.2,-,N/A,,Partly Cloudy,160,2012-11-19 02:00:00
8:00 PM,23.0,14.0,68,29.85,15.0,South,9.2,-,N/A,,Scattered Clouds,170,2012-11-19 03:00:00
9:00 PM,23.0,12.2,63,29.85,15.0,SSE,6.9,-,N/A,,Partly Cloudy,160,2012-11-19 04:00:00
10:00 PM,24.8,15.8,69,29.69,15.0,South,10.4,-,N/A,,Scattered Clouds,180,2012-11-19 05:00:00